Location: Barcelona
(41.3830°N, 2.1830°E)
Time: 13:20:55
(UTC+02:00)

ISS - Pass Details

Date: 28 May 2020
Orbit: 417 x 419 km, 51.6° (Epoch: 31 May)

Event Time Altitude Azimuth Distance (km) Brightness Sun altitude
Rises 23:08:58 0° 309° (NW) 2,367 1.7 -16.9°
Reaches altitude 10° 23:11:11 10° 318° (NW) 1,501 0.4 -17.2°
Maximum altitude 23:14:20 36° 27° (NNE) 687 -2.5 -17.5°
Enters shadow 23:15:39 25° 73° (ENE) 886 -2.3 -17.7°
